Date String (YYYY-MM-DD hh:mm:ss) UTC,Instrument flags,absolute air pressure of the measurement (hPa),sample flow rate (lpm),inlet stack bypass flow (lpm),air temperature of the measurement (°C),ambient temperature measured by the external sensor (°C),aerosol sample conditioner tube jacket temperature (°C),OPC LED temperature (°C),internal box temperature (°C),relative humidity of the measurement (%),span deviation,mass concentration of particles derived from Lorenz-Mie calculation of OPC scattering (μg/m³),mass concentration of particles derived from Lorenz-Mie calculation of OPC scattering (μg/m³),mass concentration of particles derived from Lorenz-Mie calculation of OPC scattering (μg/m³)
DateTimeUTC,F1_M11,P_M11,Q1_M11,Q2_M11,T1_M11,T2_M11,T3_M11,T4_M11,T5_M11,U1_M11,ZSPAN_M11,X2_M11,X0_M11,X1_M11
2024-03-29 13:00:00,SystemResetWarning,0822.1,5.00,000.00,019.5,018.4,000.0,028.3,021.2,21.3,0000.0,0003.37,0008.21,0002.54
2024-03-29 13:01:00,SystemResetWarning,0822.0,4.99,000.00,019.5,018.3,000.0,028.3,021.2,21.3,0000.0,0003.38,0008.58,0002.56
2024-03-29 13:02:00,SystemResetWarning,0822.0,4.99,000.00,019.4,018.3,000.0,028.2,021.1,21.3,0000.0,0003.36,0008.92,0002.55
2024-03-29 13:03:00,SystemResetWarning,0822.0,5.00,000.00,019.4,018.3,000.0,028.2,021.1,21.3,0000.0,0003.41,0008.67,0002.54
2024-03-29 13:04:00,SystemResetWarning,0822.0,5.01,000.00,019.4,018.2,000.0,028.2,021.1,21.4,0000.0,0003.44,0008.09,0002.54
2024-03-29 13:05:00,SystemResetWarning,0822.0,5.01,000.00,019.4,018.2,000.0,028.2,021.1,21.4,0000.0,0003.48,0008.27,0002.54
2024-03-29 13:06:00,SystemResetWarning,0822.0,5.00,000.00,019.3,018.2,000.0,028.2,021.0,21.4,0000.0,0003.51,0008.48,0002.52
2024-03-29 13:07:00,SystemResetWarning,0822.0,4.99,000.00,019.3,018.2,000.0,028.1,021.0,21.4,0000.0,0003.52,0008.16,0002.50
2024-03-29 13:08:00,SystemResetWarning,0822.0,4.99,000.00,019.3,018.2,000.0,028.1,021.0,21.5,0000.0,0003.48,0008.04,0002.46
2024-03-29 13:09:00,SystemResetWarning,0822.0,5.00,000.00,019.3,018.1,000.0,028.1,021.0,21.5,0000.0,0003.43,0007.99,0002.41
2024-03-29 13:10:00,SystemResetWarning,0822.0,5.01,000.00,019.3,018.1,000.0,028.1,021.0,21.6,0000.0,0003.39,0008.29,0002.36
2024-03-29 13:11:00,SystemResetWarning,0822.0,5.00,000.00,019.2,018.1,000.0,028.1,020.9,21.6,0000.0,0003.38,0008.22,0002.33
2024-03-29 13:12:00,SystemResetWarning,0822.0,4.99,000.00,019.2,018.0,000.0,028.0,020.9,21.6,0000.0,0003.33,0007.97,0002.29
2024-03-29 13:13:00,SystemResetWarning,0822.0,4.99,000.00,019.2,018.0,000.0,028.0,020.9,21.7,0000.0,0003.28,0007.33,0002.25
2024-03-29 13:14:00,SystemResetWarning,0821.9,4.99,000.00,019.2,018.0,000.0,028.0,020.9,21.8,0000.0,0003.22,0007.22,0002.21
2024-03-29 13:15:00,SystemResetWarning,0821.9,5.01,000.00,019.1,018.0,000.0,028.0,020.8,21.8,0000.0,0003.15,0007.69,0002.16
2024-03-29 13:16:00,SystemResetWarning,0821.9,5.00,000.00,019.1,018.0,000.0,028.0,020.8,21.8,0000.0,0003.06,0007.48,0002.12
2024-03-29 13:17:00,SystemResetWarning,0821.9,5.00,000.00,019.1,018.0,000.0,027.9,020.8,21.9,0000.0,0003.01,0007.27,0002.10
2024-03-29 13:18:00,SystemResetWarning,0821.9,4.99,000.00,019.1,017.9,000.0,027.9,020.8,21.9,0000.0,0002.99,0007.10,0002.07
2024-03-29 13:19:00,SystemResetWarning,0822.0,5.00,000.00,019.0,017.9,000.0,027.9,020.7,22.0,0000.0,0003.00,0007.15,0002.05
2024-03-29 13:20:00,SystemResetWarning,0822.0,5.02,000.00,019.0,017.9,000.0,027.8,020.7,22.1,0000.0,0002.96,0007.09,0002.04
2024-03-29 13:21:00,SystemResetWarning,0822.0,5.00,000.00,019.0,017.9,000.0,027.8,020.7,22.1,0000.0,0002.93,0006.15,0002.02
2024-03-29 13:22:00,SystemResetWarning,0822.0,4.99,000.00,019.0,017.9,000.0,027.8,020.7,22.1,0000.0,0002.86,0006.02,0001.99
2024-03-29 13:23:00,SystemResetWarning,0822.0,4.99,000.00,019.0,017.9,000.0,027.8,020.6,22.1,0000.0,0002.90,0006.02,0001.96
2024-03-29 13:24:00,SystemResetWarning,0822.1,5.00,000.00,018.9,017.8,000.0,027.8,020.6,22.2,0000.0,0002.91,0006.08,0001.93
2024-03-29 13:25:00,SystemResetWarning,0822.1,5.02,000.00,018.9,017.8,000.0,027.7,020.6,22.2,0000.0,0002.94,0006.43,0001.91
2024-03-29 13:26:00,SystemResetWarning,0822.1,5.00,000.00,018.9,017.8,000.0,027.7,020.6,22.3,0000.0,0002.92,0005.35,0001.87
2024-03-29 13:27:00,SystemResetWarning,0822.1,4.99,000.00,018.9,017.8,000.0,027.7,020.5,22.3,0000.0,0002.94,0005.44,0001.87
2024-03-29 13:28:00,SystemResetWarning,0822.1,5.00,000.00,018.8,017.8,000.0,027.7,020.5,22.4,0000.0,0002.98,0005.67,0001.87
2024-03-29 13:29:00,SystemResetWarning,0822.1,4.99,000.00,018.8,017.7,000.0,027.6,020.5,22.4,0000.0,0002.95,0005.56,0001.88
2024-03-29 13:30:00,SystemResetWarning,0822.1,5.01,000.00,018.8,017.7,000.0,027.6,020.5,22.4,0000.0,0002.95,0006.21,0001.89
2024-03-29 13:31:00,SystemResetWarning,0822.1,5.01,000.00,018.8,017.7,000.0,027.6,020.4,22.5,0000.0,0002.92,0006.85,0001.88
2024-03-29 13:32:00,SystemResetWarning,0822.1,4.99,000.00,018.8,017.7,000.0,027.6,020.4,22.6,0000.0,0002.95,0007.42,0001.88
2024-03-29 13:33:00,SystemResetWarning,0822.2,4.99,000.00,018.7,017.7,000.0,027.6,020.4,22.6,0000.0,0002.94,0008.18,0001.90
2024-03-29 13:34:00,SystemResetWarning,0822.2,5.00,000.00,018.7,017.6,000.0,027.5,020.4,22.6,0000.0,0002.85,0008.69,0001.90
2024-03-29 13:35:00,SystemResetWarning,0822.2,5.01,000.00,018.7,017.6,000.0,027.5,020.4,22.6,0000.0,0002.88,0008.72,0001.93
2024-03-29 13:36:00,SystemResetWarning,0822.3,5.01,000.00,018.7,017.6,000.0,027.5,020.4,22.6,0000.0,0002.87,0009.16,0001.95
2024-03-29 13:37:00,SystemResetWarning,0822.2,5.00,000.00,018.7,017.6,000.0,027.5,020.4,22.7,0000.0,0002.88,0009.41,0001.96
2024-03-29 13:38:00,SystemResetWarning,0822.2,4.99,000.00,018.6,017.6,000.0,027.5,020.3,22.7,0000.0,0002.82,0009.34,0001.96
2024-03-29 13:39:00,SystemResetWarning,0822.2,4.99,000.00,018.6,017.6,000.0,027.4,020.3,22.8,0000.0,0002.73,0009.11,0001.96
2024-03-29 13:40:00,SystemResetWarning,0822.2,5.01,000.00,018.6,017.6,000.0,027.4,020.3,22.9,0000.0,0002.65,0008.99,0001.96
2024-03-29 13:41:00,SystemResetWarning,0822.2,5.01,000.00,018.6,017.6,000.0,027.4,020.3,22.9,0000.0,0002.64,0008.75,0001.95
2024-03-29 13:42:00,SystemResetWarning,0822.2,4.99,000.00,018.6,017.5,000.0,027.4,020.3,23.0,0000.0,0002.66,0008.50,0001.94
2024-03-29 13:43:00,SystemResetWarning,0822.3,4.99,000.00,018.6,017.5,000.0,027.4,020.2,23.1,0000.0,0002.67,0008.24,0001.94
2024-03-29 13:44:00,SystemResetWarning,0822.3,5.01,000.00,018.5,017.5,000.0,027.3,020.2,23.2,0000.0,0002.65,0007.75,0001.93
2024-03-29 13:45:00,SystemResetWarning,0822.3,5.00,000.00,018.5,017.5,000.0,027.3,020.2,23.2,0000.0,0002.69,0006.64,0001.94
2024-03-29 13:46:00,SystemResetWarning,0822.3,5.00,000.00,018.5,017.4,000.0,027.3,020.2,23.4,0000.0,0002.67,0006.62,0001.93
2024-03-29 13:47:00,SystemResetWarning,0822.2,5.00,000.00,018.5,017.4,000.0,027.3,020.2,23.4,0000.0,0002.62,0005.55,0001.91
2024-03-29 13:48:00,SystemResetWarning,0822.2,5.00,000.00,018.5,017.4,000.0,027.3,020.1,23.2,0000.0,0002.62,0004.74,0001.89
2024-03-29 13:49:00,SystemResetWarning,0822.2,5.00,000.00,018.4,017.4,000.0,027.2,020.1,23.3,0000.0,0002.66,0004.84,0001.87
2024-03-29 13:50:00,SystemResetWarning,0822.2,5.00,000.00,018.4,017.4,000.0,027.2,020.1,23.6,0000.0,0002.69,0005.05,0001.86
2024-03-29 13:51:00,SystemResetWarning,0822.3,5.00,000.00,018.4,017.4,000.0,027.2,020.1,23.7,0000.0,0002.72,0005.30,0001.85
2024-03-29 13:52:00,SystemResetWarning,0822.3,4.99,000.00,018.4,017.4,000.0,027.2,020.1,23.8,0000.0,0002.71,0005.34,0001.85
2024-03-29 13:53:00,SystemResetWarning,0822.3,5.00,000.00,018.4,017.4,000.0,027.2,020.1,23.7,0000.0,0002.70,0005.17,0001.86
2024-03-29 13:54:00,SystemResetWarning,0822.3,4.99,000.00,018.4,017.4,000.0,027.2,020.1,23.8,0000.0,0002.66,0005.22,0001.85
2024-03-29 13:55:00,SystemResetWarning,0822.4,5.00,000.00,018.4,017.4,000.0,027.1,020.1,24.0,0000.0,0002.64,0005.70,0001.84
2024-03-29 13:56:00,SystemResetWarning,0822.4,5.00,000.00,018.4,017.4,000.0,027.1,020.1,23.8,0000.0,0002.69,0005.96,0001.83
2024-03-29 13:57:00,SystemResetWarning,0822.4,5.01,000.00,018.3,017.3,000.0,027.1,020.0,23.7,0000.0,0002.76,0006.41,0001.82
2024-03-29 13:58:00,SystemResetWarning,0822.4,5.00,000.00,018.3,017.3,000.0,027.1,020.0,24.1,0000.0,0002.76,0006.61,0001.81
2024-03-29 13:59:00,SystemResetWarning,0822.4,4.99,000.00,018.3,017.3,000.0,027.1,020.0,24.4,0000.0,0002.73,0006.86,0001.80
